Showing default

GONETS M 18, 46487

Orbit data source: Space-Track

GONETS M 18, 46487 is a payload satellite owned by Gonets (CIS) in LEO that was launched on Mon, 28 Sep 2020 UTC via a SOYUZ-2-1B launch vehicle from the Plesetsk Missile And Space Complex (PKMTR). Payload-class satellites include a variety of spacecraft equipped with specific instruments for various scientific and technological missions. These include communications satellites like Starlink; space stations such as the ISS; scientific satellites like the Hubble; Earth observation satellites from companies like Planet Labs, Umbra, and HawkEye 360; GPS; miniature CubeSats for education and research; and military/defense satellites.

Loading next visibility...
Identifier
46487, 2020-068B
Orbit
LEO
Country
Flag of CISCIS
Related business
Manufacturer
Resehetnev ISS
Mission
Operational Commercial Communications
Bus & Motor
STRELA-3M, Unknown motor
Mass
225 kg wet, 225 kg dry
Launch date (UTC)
2020-09-28 (6 years ago)
Launch vehicle
SOYUZ-2-1B
Launch site
Plesetsk Missile And Space Complex (PKMTR)
Object type
Payload
Rocket body
Debris
Shape & HBR
Cyl + 1 Ant, 3.5 m
Radar Cross Section
1.798 m², Large (>1 m²)

Expand to show TLE details & history
Last TLE update: 22 hours ago

TLE from 22 hours ago
0 GONETS M 18
1 46487U 20068B   26172.51996069  .00000149  00000-0  10055-2 0  9995
2 46487  82.4948 343.9224 0020138  25.1407 335.0649 12.42874026259682
Epoch: 2026-06-21T12:28Z
TLE epoch observation values (Epoch: 2026-06-21T12:28:44.603Z)
Latitude
0.00001°
Longitude
-112.9825°
Altitude
1,482.77 km
Speed
7.129 km/s
True Right ascension
22h 55m 41s
True Declination
0° 00' 00"
Sunlit
Object was in daylight at epoch
Visualization orbit readout
Latitude
Unknown
Longitude
Unknown
Altitude
Unknown
Speed
Unknown
Apparent Right ascension
Unknown
Apparent Declination
Unknown
Sunlit
N/A
Visualization observer readout
Local Sidereal Time
21:36:49
Azimuth
Unknown
Elevation
Unknown
Doppler factor
Unknown
Orbital elements
Apogee altitude
1,507.643 km
Perigee altitude
1,475.946 km
Semi-major axis
7,869.932 km
Eccentricity
0.00201
Inclination
82.4948°
RAAN
343.9224°
Arg. of periapsis
25.1407°
True anomaly
334.96739°
Mean anomaly
335.0649°
Eccentric anomaly
335.01617°
Mean motion
3.10876 °/min
Orbital period
115.8 mins
BSTAR
0.0010055
Loading maneuver chart data...
Computing Atmospheric mass density...
Loading historical data...
Loading historical data...
Loading historical data...
Loading historical data...
Loading historical data...
Loading historical data...
Loading historical data...

Documentation

Showing up to 5 results
|